This demonstration page uses our WeatherBlox Daily Observations layout. Learn more.

40.92945, -100.16068

Hourly Observations for May 30, 2017

Temp ( °F °C ) Dew Point ( °F °C ) Humidity (%) Winds ( mph kmh ) Pressure ( in mb ) Visibility ( mi km ) Precip ( " mm )
12:15 am 00:15 Clear 51 10.8 41 5.2 69 69 Calm 30.12 1020 10 16.09344 0 0
12:35 am 00:35 Clear 50 9.8 42 5.3 74 74 Calm 30.12 1020 10 16.09344 0 0
12:55 am 00:55 Clear 50 9.9 42 5.8 76 76 WNW 3 6 30.12 1020 10 16.09344 0 0
1:15 am 01:15 Clear 50 10 42 5.7 75 75 WNW 3 6 30.12 1020 10 16.09344 0 0
1:35 am 01:35 Clear 49 9.2 42 5.5 78 78 Calm 30.12 1020 10 16.09344 0 0
1:55 am 01:55 Clear 48 8.8 41 5 77 77 NW 6 9 30.12 1020 10 16.09344 0 0
2:15 am 02:15 Clear 47 8.4 41 5 79 79 NNW 6 9 30.12 1020 10 16.09344 0 0
2:35 am 02:35 Clear 47 8.2 40 4.7 79 79 NW 5 7 30.12 1020 10 16.09344 0 0
2:55 am 02:55 Clear 46 7.8 40 4.4 79 79 NW 5 7 30.12 1020 10 16.09344 0 0
3:15 am 03:15 Clear 46 7.6 39 4 78 78 WNW 5 7 30.15 1021 10 16.09344 0 0
3:35 am 03:35 Clear 44 6.7 39 4 83 83 Calm 30.15 1021 10 16.09344 0 0
3:55 am 03:55 Clear 45 7.1 40 4.6 84 84 WNW 3 6 30.15 1021 10 16.09344 0 0
4:15 am 04:15 Clear 45 7.2 40 4.2 81 81 W 5 7 30.15 1021 10 16.09344 0 0
4:35 am 04:35 Clear 44 6.9 39 3.9 81 81 WNW 6 9 30.15 1021 10 16.09344 0 0
4:55 am 04:55 Clear 44 6.6 39 3.9 83 83 WNW 5 7 30.15 1021 10 16.09344 0 0
5:15 am 05:15 Clear 44 6.5 39 3.8 83 83 W 6 9 30.15 1021 10 16.09344 0 0
5:35 am 05:35 Clear 44 6.7 40 4.5 86 86 WNW 5 7 30.15 1021 10 16.09344 0 0
5:55 am 05:55 Clear 43 5.9 38 3.6 85 85 W 5 7 30.15 1021 10 16.09344 0 0
6:15 am 06:15 Sunny 43 6.2 40 4.3 88 88 WNW 6 9 30.15 1021 10 16.09344 0 0
6:35 am 06:35 Sunny 44 6.5 40 4.3 86 86 NW 5 7 30.15 1021 10 16.09344 0 0
6:55 am 06:55 Sunny 44 6.7 41 4.9 88 88 Calm 30.15 1021 10 16.09344 0 0
7:15 am 07:15 Sunny 47 8.3 43 6.1 86 86 Calm 30.12 1020 10 16.09344 0 0
7:35 am 07:35 Sunny 49 9.4 43 6.1 80 80 Calm 30.12 1020 10 16.09344 0 0
7:55 am 07:55 Sunny 51 10.6 45 7.1 79 79 Calm 30.12 1020 10 16.09344 0 0
8:15 am 08:15 Sunny 54 12.1 47 8.1 77 77 Calm 30.09 1019 10 16.09344 0 0
8:35 am 08:35 Sunny 56 13.6 47 8.6 72 72 WNW 3 6 30.09 1019 10 16.09344 0 0
8:55 am 08:55 Sunny 60 15.5 47 8.2 62 62 Calm 30.06 1018 10 16.09344 0 0
9:15 am 09:15 Sunny 63 17 46 7.7 55 55 Calm 30.06 1018 10 16.09344 0 0
9:35 am 09:35 Sunny 65 18.3 44 6.9 48 48 Calm 30.03 1017 10 16.09344 0 0
9:55 am 09:55 Sunny 68 19.8 43 6.2 41 41 E 3 6 30.03 1017 10 16.09344 0 0
10:15 am 10:15 Sunny 69 20.5 38 3.5 33 33 SE 3 6 30.03 1017 10 16.09344 0 0
10:35 am 10:35 Sunny 70 21.2 40 4.4 33 33 SSE 3 6 30 1016 10 16.09344 0 0
10:55 am 10:55 Sunny 71 21.9 39 4 31 31 SSW 5 7 30 1016 10 16.09344 0 0
11:15 am 11:15 Partly Cloudy 72 22.1 38 3.4 29 29 Calm 30 1016 10 16.09344 0 0
11:35 am 11:35 Sunny 72 22.4 37 3 28 28 Calm 29.97 1015 10 16.09344 0 0
11:55 am 11:55 Partly Cloudy 74 23.5 34 1.3 23 23 N 5 7 29.97 1015 10 16.09344 0 0
12:15 pm 12:15 Partly Cloudy 74 23.5 35 1.9 24 24 Calm 29.97 1015 10 16.09344 0 0
12:35 pm 12:35 Partly Cloudy 76 24.5 37 2.9 25 25 NE 6 9 29.94 1014 10 16.09344 0 0
12:55 pm 12:55 Partly Cloudy 76 24.2 35 1.9 23 23 W 3 6 29.94 1014 10 16.09344 0 0
1:15 pm 13:15 Partly Cloudy 77 24.9 35 1.8 22 22 WNW 5 7 29.94 1014 10 16.09344 0 0
1:35 pm 13:35 Sunny 77 25.1 36 2 22 22 Calm 29.94 1014 10 16.09344 0 0
1:55 pm 13:55 Sunny 77 25.1 36 2.1 22 22 Calm 29.91 1013 10 16.09344 0 0
2:15 pm 14:15 Sunny 78 25.6 37 2.5 22 22 W 10 17 29.91 1013 10 16.09344 0 0
2:35 pm 14:35 Sunny 79 25.9 35 1.9 21 21 NNW 9 15 29.91 1013 10 16.09344 0 0
2:55 pm 14:55 Sunny 78 25.6 34 1.3 20 20 Calm 29.91 1013 10 16.09344 0 0
3:15 pm 15:15 Sunny 80 26.4 36 2 20 20 W 7 11 29.91 1013 10 16.09344 0 0
3:35 pm 15:35 Sunny 80 26.4 35 1.7 20 20 WNW 3 6 29.91 1013 10 16.09344 0 0
3:55 pm 15:55 Partly Cloudy 81 27.1 35 1.8 19 19 NW 13 20 29.91 1013 10 16.09344 0 0
4:15 pm 16:15 Partly Cloudy 80 26.8 35 1.4 19 19 W 10 17 29.91 1013 10 16.09344 0 0
4:35 pm 16:35 Mostly Cloudy 81 27.3 36 2.1 20 20 WNW 21 33 29.88 1012 10 16.09344 0 0
4:55 pm 16:55 Partly Cloudy 80 26.8 33 0.8 18 18 WNW 7 11 29.91 1013 10 16.09344 0 0
5:15 pm 17:15 Partly Cloudy 81 27.3 31 -0.3 16 16 WNW 10 17 29.88 1012 10 16.09344 0 0
5:35 pm 17:35 Partly Cloudy 82 27.5 30 -0.9 16 16 NW 10 17 29.88 1012 10 16.09344 0 0
5:55 pm 17:55 Partly Cloudy 81 27.4 32 0 17 17 NW 17 28 29.88 1012 10 16.09344 0 0
6:15 pm 18:15 Sunny 82 27.6 33 0.3 17 17 WNW 13 20 29.88 1012 10 16.09344 0 0
6:35 pm 18:35 Sunny 81 27.2 28 -2.5 14 14 NNW 14 22 29.91 1013 10 16.09344 0 0
6:55 pm 18:55 Sunny 81 27 27 -2.9 14 14 NW 16 26 29.91 1013 10 16.09344 0 0
7:15 pm 19:15 Sunny 80 26.5 29 -1.7 16 16 N 13 20 29.91 1013 7 11.265408 0 0
7:35 pm 19:35 Sunny 79 26 30 -1 17 17 NNW 14 22 29.91 1013 10 16.09344 0 0
7:55 pm 19:55 Sunny 77 25.2 31 -0.3 19 19 N 14 22 29.91 1013 10 16.09344 0 0
8:15 pm 20:15 Sunny 76 24.2 34 1 22 22 N 12 19 29.91 1013 10 16.09344 0 0
8:35 pm 20:35 Sunny 73 22.8 35 1.7 25 25 N 7 11 29.94 1014 10 16.09344 0 0
8:55 pm 20:55 Sunny 69 20.7 37 2.5 30 30 N 8 13 29.94 1014 10 16.09344 0 0
9:15 pm 21:15 Clear 67 19.7 37 2.7 33 33 N 10 17 29.97 1015 10 16.09344 0 0
9:35 pm 21:35 Clear 65 18.4 39 3.7 38 38 NNE 8 13 29.97 1015 10 16.09344 0 0
9:55 pm 21:55 Clear 62 16.6 40 4.7 45 45 NE 8 13 30 1016 10 16.09344 0 0
10:15 pm 22:15 Clear 60 15.3 41 5.2 51 51 NE 7 11 30 1016 10 16.09344 0 0
10:35 pm 22:35 Clear 61 16.1 41 5.1 48 48 ESE 3 6 30 1016 10 16.09344 0 0
10:55 pm 22:55 Clear 62 16.7 41 4.8 46 46 NE 6 9 30 1016 10 16.09344 0 0
11:15 pm 23:15 Clear 58 14.2 42 5.8 57 57 Calm 30.03 1017 10 16.09344 0 0
11:35 pm 23:35 Clear 59 15 42 5.4 53 53 Calm 30.03 1017 10 16.09344 0 0
11:55 pm 23:55 Clear 58 14.7 41 5.1 53 53 ENE 5 7 30.03 1017 10 16.09344 0 0

Powered by AerisWeather